THOR AGENA D R/B, 815

Orbit data source: Space-Track

THOR AGENA D R/B, 815 is space debris in SSO originally from a launch on Thu, 18 Jun 1964 UTC launched from the Air Force Western Test Range (AFWTR). Debris objects in space refer to the collection of defunct objects orbiting the Earth. Examples of debris include non-operational satellites, rocket bodies, and fragments generated from explosions, collisions, or faulty payload assembly.

Loading next visibility...
Identifier
815, 1964-031C
Orbit
SSO
Country
Flag of USUS
Related business
Manufacturer
LMSC
Mission
Spacecraft
Bus & Motor
AGENA D, Unknown motor
Mass
600 kg wet, 600 kg dry
Launch date (UTC)
1964-06-18 (61 years ago)
Launch vehicle
Unknown
Launch site
Air Force Western Test Range (AFWTR)
Object type
Payload
Rocket body
Debris
Shape & HBR
Cyl + 1 Nozzle, 3.1 m
Radar Cross Section
8.306 m², Large (>1 m²)

Expand to show TLE details & history
Last TLE update: 12 hours ago

TLE from 12 hours ago
0 THOR AGENA D R/B
1 00815U 64031C   25258.75208811  .00000145  00000-0  79816-4 0  9997
2 00815  99.7998 170.3218 0011688 356.7621   3.3479 14.28340354181823
Epoch: 2025-09-15T18:03Z
TLE epoch observation values (Epoch: 2025-09-15T18:03:00.412Z)
Latitude
-0.00003°
Longitude
-95.38215°
Altitude
791.799 km
Speed
7.462 km/s
True Right ascension
11h 21m 17s
True Declination
0° 00' 00"
Sunlit
Object was in daylight at epoch
Visualization orbit readout
Latitude
Unknown
Longitude
Unknown
Altitude
Unknown
Speed
Unknown
Apparent Right ascension
Unknown
Apparent Declination
Unknown
Sunlit
N/A
Visualization observer readout
Local Sidereal Time
23:04:28
Azimuth
Unknown
Elevation
Unknown
Doppler factor
Unknown
Orbital elements
Apogee altitude
802.87 km
Perigee altitude
786.103 km
Semi-major axis
7,172.624 km
Eccentricity
0.00117
Inclination
99.7998°
RAAN
170.3218°
Arg. of periapsis
356.7621°
True anomaly
3.35573°
Mean anomaly
3.3479°
Eccentric anomaly
3.35182°
Mean motion
3.57294 °/min
Orbital period
100.76 mins
BSTAR
0.000079816
Loading maneuver chart data...
Computing Atmospheric mass density...
Loading historical data...
Loading historical data...
Loading historical data...
Loading historical data...
Loading historical data...
Loading historical data...
Loading historical data...
Other satellites on launch #31 in the year 1964 (1964-06-18 UTC)

Documentation

Showing up to 5 results
|